Location: Strada George Coșbuc
(47.6577°N, 23.5639°E)
Time: 22:19:53
(UTC+03:00)

ISS - Pass Details

Date: 08 September 2017
Orbit: 401 x 407 km, 51.6° (Epoch: 25 September)

Event Time Altitude Azimuth Distance (km) Brightness Sun altitude
Exits shadow 04:26:41 30° 103° (ESE) 757 -2.2 -23.2°
Drops below altitude 10° 04:28:47 10° 75° (ENE) 1,474 -0.1 -22.9°
Sets 04:30:57 0° 68° (ENE) 2,338 1.3 -22.7°
